Regional Weather Roundup
Issued by NWS

Home | Current Version | Previous Version | Graphics & Text | Print | Product List | Glossary Off
Versions: 1 2 3 4 5 6 7 8 9 10 11 12 13 14 15 16 17 18 19 20 21 22 23 24 25 26 27 28 29 30 31 32 33 34 35 36 37 38 39 40 41 42 43 44 45 46 47 48 49 50

079
ASUS44 KMEG 290010
RWRTN
TENNESSEE HOURLY STATE WEATHER ROUNDUP
NATIONAL WEATHER SERVICE MEMPHIS TN
700 PM CDT SAT MAY 28 2016

TNZ002-004-019-021-049-052-054-088>092-290100-
WEST TENNESSEE

CITY           SKY/WX    TMP DP  RH WIND       PRES   REMARKS
MEMPHIS INTL   PTSUNNY   83  69  62 S7        30.02R
NWS MEMPHIS      N/A     82 N/A N/A MISG        N/A
JACKSON        CLOUDY    77  68  73 SW6       30.04R
DYERSBURG      MOSUNNY   82  66  57 S6        30.01S
UNION CITY     MOSUNNY   81  70  69 S7        30.02R
PARIS          SUNNY     79  66  65 SW5       30.04R
LEXINGTON      SUNNY     81  64  57 S5        30.04R
$$

TNZ008-025-027-028-033-062-065-066-290100-
NORTH MIDDLE TENNESSEE

CITY           SKY/WX    TMP DP  RH WIND       PRES   REMARKS
NASHVILLE      CLOUDY    80  60  50 S6        30.07S
CLARKSVILLE    MOSUNNY   79  67  66 S5        30.05R
SMYRNA         CLOUDY    78  64  61 S3        30.08R
COOKEVILLE     CLEAR     75  66  73 CALM      30.11S
CROSSVILLE     CLEAR     73  60  63 NW8       30.15R
$$

TNZ061-075-076-078-094-096-097-290100-
SOUTH MIDDLE TENNESSEE

CITY           SKY/WX    TMP DP  RH WIND       PRES   REMARKS
FAYETTEVILLE   CLEAR     77  63  61 CALM      30.11R
TULLAHOMA      CLEAR     73  70  88 CALM      30.12R
WINCHESTER     CLEAR     73  64  73 CALM      30.12R
MCMINNVILLE    CLEAR     73  70  88 CALM      30.11S
COLUMBIA       CLEAR     81  70  69 S7        30.07R
SHELBYVILLE    CLEAR     77  68  73 CALM      30.10R
$$

TNZ017-018-042-046-047-290100-
NORTHEAST TENNESSEE

CITY           SKY/WX    TMP DP  RH WIND       PRES   REMARKS
TRI CITIES     CLOUDY    81  63  54 CALM      30.12S
$$

TNZ012-013-036-069-073-074-290100-
CENTRAL EAST TENNESSEE

CITY           SKY/WX    TMP DP  RH WIND       PRES   REMARKS
KNOXVILLE      MOCLDY    82  62  50 NE3       30.09R
OAK RIDGE      PTCLDY    80  64  58 CALM      30.11R
GATLINBURG       N/A     82  61  47 CALM      30.09R
$$

TNZ083-085-099-290100-
SOUTHEAST TENNESSEE

CITY           SKY/WX    TMP DP  RH WIND       PRES   REMARKS
CHATTANOOGA    PTCLDY    85  53  33 SE5       30.07R
$$

SKY/WX REPORTED AS FAIR MEANS FEW OR NO CLOUDS BELOW
12 THOUSAND FEET.





USA.gov is the U.S. government's official web portal to all federal, state and local government web resources and services.